HIMAWARI-9

Last updated on Sat Apr 13 2024 01:02:16 GMT+0100 (British Summer Time)

1 41836U 16064A 24103.42688580 -.00000284 00000+0 00000+0 0 9993 2 41836 0.0194 114.1882 0000901 262.8442 118.4879 1.00268957 27231
UTC large
Height (km)
Speed (km/s)
/
Latitude / Longitude
Inclination (degrees)
Orbital Period (minutes)
Azimuth
Elevation
Range (km)
Doppler Factor

Next 0 passes for location: London (51.5072 / 0.1276)

Sorry there are no passes over London.